Date,TemperatureHighF,TemperatureAvgF,TemperatureLowF,DewpointHighF,DewpointAvgF,DewpointLowF,HumidityHigh,HumidityAvg,HumidityLow,PressureMaxIn,PressureMinIn,WindSpeedMaxMPH,WindSpeedAvgMPH,GustSpeedMaxMPH,PrecipitationSumIn
2013-1-1,33,32,29,-100,-100,-100,0,0,100,0.00,40.00,0,-999,0,0.00
2013-1-2,27,25,21,-100,-100,-100,0,0,100,0.00,40.00,0,-999,0,0.00
2013-1-3,39,28,21,-100,-100,-100,0,0,100,0.00,40.00,0,-999,0,0.00
2013-1-4,42,31,23,-100,-100,-100,0,0,100,0.00,40.00,0,-999,0,0.00
2013-1-5,43,34,29,-100,-100,-100,0,0,100,0.00,40.00,0,-999,0,0.00
2013-1-6,43,35,28,-100,-100,-100,0,0,100,0.00,40.00,0,-999,0,0.00
2013-1-7,43,30,25,-100,-100,-100,0,0,100,0.00,40.00,0,-999,0,0.00
2013-1-8,51,35,25,-100,-100,-100,0,0,100,0.00,40.00,0,-999,0,0.00
2013-1-9,51,45,42,-100,-100,-100,0,0,100,0.00,40.00,0,-999,0,0.00
2013-1-10,60,50,42,-100,-100,-100,0,0,100,0.00,40.00,0,-999,0,0.00
2013-1-11,59,53,46,-100,-100,-100,0,0,100,0.00,40.00,0,-999,0,0.00
2013-1-12,64,55,39,-100,-100,-100,0,0,100,0.00,40.00,0,-999,0,0.00
2013-1-13,39,32,24,-100,-100,-100,0,0,100,0.00,40.00,0,-999,0,0.00
2013-1-14,28,23,19,-100,-100,-100,0,0,100,0.00,40.00,0,-999,0,0.00
2013-1-15,26,22,19,-100,-100,-100,0,0,100,0.00,40.00,0,-999,0,0.00
2013-1-16,36,28,22,-100,-100,-100,0,0,100,0.00,40.00,0,-999,0,0.00
2013-1-17,44,30,22,-100,-100,-100,0,0,100,0.00,40.00,0,-999,0,0.00
2013-1-18,44,32,25,-100,-100,-100,0,0,100,0.00,40.00,0,-999,0,0.00
2013-1-19,55,41,32,-100,-100,-100,0,0,100,0.00,40.00,0,-999,0,0.00
2013-1-20,46,38,32,-100,-100,-100,0,0,100,0.00,40.00,0,-999,0,0.00
2013-1-21,38,30,25,-100,-100,-100,0,0,100,0.00,40.00,0,-999,0,0.00
2013-1-22,28,24,21,-100,-100,-100,0,0,100,0.00,40.00,0,-999,0,0.00
2013-1-23,47,32,21,-100,-100,-100,0,0,100,0.00,40.00,0,-999,0,0.00
2013-1-24,35,29,24,-100,-100,-100,0,0,100,0.00,40.00,0,-999,0,0.00
2013-1-25,43,34,29,-100,-100,-100,0,0,100,0.00,40.00,0,-999,0,0.00
2013-1-26,45,37,31,-100,-100,-100,0,0,100,0.00,40.00,0,-999,0,0.00
2013-1-27,55,44,36,-100,-100,-100,0,0,100,0.00,40.00,0,-999,0,0.00
2013-1-28,65,59,54,-100,-100,-100,0,0,100,0.00,40.00,0,-999,0,0.00
2013-1-29,66,60,51,-100,-100,-100,0,0,100,0.00,40.00,0,-999,0,0.00
2013-1-30,52,47,31,-100,-100,-100,0,0,100,0.00,40.00,0,-999,0,0.00
2013-1-31,43,32,25,-100,-100,-100,0,0,100,0.00,40.00,0,-999,0,0.00
2013-2-1,29,22,14,-100,-100,-100,0,0,100,0.00,40.00,0,-999,0,0.00
2013-2-2,50,33,24,-100,-100,-100,0,0,100,0.00,40.00,0,-999,0,0.00
2013-2-3,52,41,33,-100,-100,-100,0,0,100,0.00,40.00,0,-999,0,0.00
2013-2-4,43,39,36,-100,-100,-100,0,0,100,0.00,40.00,0,-999,0,0.00
2013-2-5,50,38,32,-100,-100,-100,0,0,100,0.00,40.00,0,-999,0,0.00
2013-2-6,49,39,33,-100,-100,-100,0,0,100,0.00,40.00,0,-999,0,0.00
2013-2-7,58,48,40,-100,-100,-100,0,0,100,0.00,40.00,0,-999,0,0.00
2013-2-8,50,40,31,-100,-100,-100,0,0,100,0.00,40.00,0,-999,0,0.00
2013-2-9,40,35,29,-100,-100,-100,0,0,100,0.00,40.00,0,-999,0,0.00
2013-2-10,61,50,39,-100,-100,-100,0,0,100,0.00,40.00,0,-999,0,0.00
2013-2-11,54,44,36,-100,-100,-100,0,0,100,0.00,40.00,0,-999,0,0.00
2013-2-12,43,37,31,-100,-100,-100,0,0,100,0.00,40.00,0,-999,0,0.00
2013-2-13,50,39,35,-100,-100,-100,0,0,100,0.00,40.00,0,-999,0,0.00
2013-2-14,60,42,32,-100,-100,-100,0,0,100,0.00,40.00,0,-999,0,0.00
2013-2-15,46,41,30,-100,-100,-100,0,0,100,0.00,40.00,0,-999,0,0.00
2013-2-16,39,30,25,-100,-100,-100,0,0,100,0.00,40.00,0,-999,0,0.00
2013-2-17,51,38,32,-100,-100,-100,0,0,100,0.00,40.00,0,-999,0,0.00
2013-2-18,51,45,40,-100,-100,-100,0,0,100,0.00,40.00,0,-999,0,0.00
2013-2-19,45,36,29,-100,-100,-100,0,0,100,0.00,40.00,0,-999,0,0.00
2013-2-20,31,27,25,-100,-100,-100,0,0,100,0.00,40.00,0,-999,0,0.00
2013-2-21,31,28,25,-100,-100,-100,0,0,100,0.00,40.00,0,-999,0,0.00
2013-2-22,40,33,29,-100,-100,-100,0,0,100,0.00,40.00,0,-999,0,0.00
2013-2-23,42,32,25,-100,-100,-100,0,0,100,0.00,40.00,0,-999,0,0.00
2013-2-24,47,37,27,-100,-100,-100,0,0,100,0.00,40.00,0,-999,0,0.00
2013-2-25,48,41,32,-100,-100,-100,0,0,100,0.00,40.00,0,-999,0,0.00
2013-2-26,41,39,35,-100,-100,-100,0,0,100,0.00,40.00,0,-999,0,0.00
2013-2-27,40,37,33,-100,-100,-100,0,0,100,0.00,40.00,0,-999,0,0.00
2013-2-28,40,35,33,-100,-100,-100,0,0,100,0.00,40.00,0,-999,0,0.00
2013-3-1,35,31,29,-100,-100,-100,0,0,100,0.00,40.00,0,-999,0,0.00
2013-3-2,32,28,25,-100,-100,-100,0,0,100,0.00,40.00,0,-999,0,0.00
2013-3-3,41,29,21,-100,-100,-100,0,0,100,0.00,40.00,0,-999,0,0.00
2013-3-4,55,44,32,-100,-100,-100,0,0,100,0.00,40.00,0,-999,0,0.00
2013-3-5,47,42,36,-100,-100,-100,0,0,100,0.00,40.00,0,-999,0,0.00
2013-3-6,43,34,29,-100,-100,-100,0,0,100,0.00,40.00,0,-999,0,0.00
2013-3-7,49,36,30,-100,-100,-100,0,0,100,0.00,40.00,0,-999,0,0.00
2013-3-8,51,40,31,-100,-100,-100,0,0,100,0.00,40.00,0,-999,0,0.00
2013-3-9,67,51,43,-100,-100,-100,0,0,100,0.00,40.00,0,-999,0,0.00
2013-3-10,58,53,43,-100,-100,-100,0,0,100,0.00,40.00,0,-999,0,0.00
2013-3-11,43,38,32,-100,-100,-100,0,0,100,0.00,40.00,0,-999,0,0.00
2013-3-12,55,41,28,-100,-100,-100,0,0,100,0.00,40.00,0,-999,0,0.00
2013-3-13,48,38,30,-100,-100,-100,0,0,100,0.00,40.00,0,-999,0,0.00
2013-3-14,59,43,29,-100,-100,-100,0,0,100,0.00,40.00,0,-999,0,0.00
2013-3-15,76,59,43,-100,-100,-100,0,0,100,0.00,40.00,0,-999,0,0.00
2013-3-16,76,58,44,-100,-100,-100,0,0,100,0.00,40.00,0,-999,0,0.00
2013-3-17,44,39,35,-100,-100,-100,0,0,100,0.00,40.00,0,-999,0,0.00
2013-3-18,53,44,39,-100,-100,-100,0,0,100,0.00,40.00,0,-999,0,0.00
2013-3-19,49,40,32,-100,-100,-100,0,0,100,0.00,40.00,0,-999,0,0.00
2013-3-20,50,40,32,-100,-100,-100,0,0,100,0.00,40.00,0,-999,0,0.00
2013-3-21,40,31,25,-100,-100,-100,0,0,100,0.00,40.00,0,-999,0,0.00
2013-3-22,37,32,29,-100,-100,-100,0,0,100,0.00,40.00,0,-999,0,0.00
2013-3-23,45,39,35,-100,-100,-100,0,0,100,0.00,40.00,0,-999,0,0.00
2013-3-24,41,37,32,-100,-100,-100,0,0,100,0.00,40.00,0,-999,0,0.00
2013-3-25,37,33,29,-100,-100,-100,0,0,100,0.00,40.00,0,-999,0,0.00
2013-3-26,46,35,25,-100,-100,-100,0,0,100,0.00,40.00,0,-999,0,0.00
2013-3-27,54,39,27,-100,-100,-100,0,0,100,0.00,40.00,0,-999,0,0.00
2013-3-28,62,47,37,-100,-100,-100,0,0,100,0.00,40.00,0,-999,0,0.00
2013-3-29,56,50,47,-100,-100,-100,0,0,100,0.00,40.00,0,-999,0,0.00
2013-3-30,53,47,42,-100,-100,-100,0,0,100,0.00,40.00,0,-999,0,0.00
2013-3-31,63,53,45,-100,-100,-100,0,0,100,0.00,40.00,0,-999,0,0.00
2013-4-1,55,49,43,-100,-100,-100,0,0,100,0.00,40.00,0,-999,0,0.00
2013-4-2,43,39,37,-100,-100,-100,0,0,100,0.00,40.00,0,-999,0,0.00
2013-4-3,46,40,35,-100,-100,-100,0,0,100,0.00,40.00,0,-999,0,0.00
2013-4-4,50,43,39,-100,-100,-100,0,0,100,0.00,40.00,0,-999,0,0.00
2013-4-5,67,48,32,-100,-100,-100,0,0,100,0.00,40.00,0,-999,0,0.00
2013-4-6,69,56,40,-100,-100,-100,0,0,100,0.00,40.00,0,-999,0,0.00
2013-4-7,69,61,56,-100,-100,-100,0,0,100,0.00,40.00,0,-999,0,0.00
2013-4-8,73,65,54,-100,-100,-100,0,0,100,0.00,40.00,0,-999,0,0.00
2013-4-9,80,68,59,-100,-100,-100,0,0,100,0.00,40.00,0,-999,0,0.00
2013-4-10,76,70,59,-100,-100,-100,0,0,100,0.00,40.00,0,-999,0,0.00
2013-4-11,55,46,41,-100,-100,-100,0,0,100,0.00,40.00,0,-999,0,0.00
2013-4-12,62,49,38,-100,-100,-100,0,0,100,0.00,40.00,0,-999,0,0.00
2013-4-13,64,52,39,-100,-100,-100,0,0,100,0.00,40.00,0,-999,0,0.00
2013-4-14,69,58,47,-100,-100,-100,0,0,100,0.00,40.00,0,-999,0,0.00
2013-4-15,71,63,55,-100,-100,-100,0,0,100,0.00,40.00,0,-999,0,0.00
2013-4-16,81,69,63,-100,-100,-100,0,0,100,0.00,40.00,0,-999,0,0.00
2013-4-17,82,71,58,-100,-100,-100,0,0,100,0.00,40.00,0,-999,0,0.00
2013-4-18,73,63,42,-100,-100,-100,0,0,100,0.00,40.00,0,-999,0,0.00
2013-4-19,54,44,39,-100,-100,-100,0,0,100,0.00,40.00,0,-999,0,0.00
2013-4-20,60,49,36,-100,-100,-100,0,0,100,0.00,40.00,0,-999,0,0.00
2013-4-21,62,52,44,-100,-100,-100,0,0,100,0.00,40.00,0,-999,0,0.00
2013-4-22,72,55,43,-100,-100,-100,0,0,100,0.00,40.00,0,-999,0,0.00
2013-4-23,73,63,54,-100,-100,-100,0,0,100,0.00,40.00,0,-999,0,0.00
2013-4-24,54,46,38,-100,-100,-100,0,0,100,0.00,40.00,0,-999,0,0.00
2013-4-25,68,52,37,-100,-100,-100,0,0,100,0.00,40.00,0,-999,0,0.00
2013-4-26,54,50,45,-100,-100,-100,0,0,100,0.00,40.00,0,-999,0,0.00
2013-4-27,59,51,46,-100,-100,-100,0,0,100,0.00,40.00,0,-999,0,0.00
2013-4-28,65,56,51,-100,-100,-100,0,0,100,0.00,40.00,0,-999,0,0.00
2013-4-29,76,59,47,-100,-100,-100,0,0,100,0.00,40.00,0,-999,0,0.00
2013-4-30,79,68,54,-100,-100,-100,0,0,100,0.00,40.00,0,-999,0,0.00
2013-5-1,78,67,60,-100,-100,-100,0,0,100,0.00,40.00,0,-999,0,0.00
2013-5-2,68,62,53,-100,-100,-100,0,0,100,0.00,40.00,0,-999,0,0.00
2013-5-3,47,40,36,-100,-100,-100,0,0,100,0.00,40.00,0,-999,0,0.00
2013-5-4,52,43,34,-100,-100,-100,0,0,100,0.00,40.00,0,-999,0,0.00
2013-5-5,52,46,41,-100,-100,-100,0,0,100,0.00,40.00,0,-999,0,0.00
2013-5-6,65,57,51,-100,-100,-100,0,0,100,0.00,40.00,0,-999,0,0.00
2013-5-7,74,62,51,-100,-100,-100,0,0,100,0.00,40.00,0,-999,0,0.00
2013-5-8,79,67,54,-100,-100,-100,0,0,100,0.00,40.00,0,-999,0,0.00
2013-5-9,78,68,61,-100,-100,-100,0,0,100,0.00,40.00,0,-999,0,0.00
2013-5-10,76,67,60,-100,-100,-100,0,0,100,0.00,40.00,0,-999,0,0.00
2013-5-11,75,63,54,-100,-100,-100,0,0,100,0.00,40.00,0,-999,0,0.00
2013-5-12,65,54,46,-100,-100,-100,0,0,100,0.00,40.00,0,-999,0,0.00
2013-5-13,75,58,47,-100,-100,-100,0,0,100,0.00,40.00,0,-999,0,0.00
2013-5-14,88,68,57,-100,-100,-100,0,0,100,0.00,40.00,0,-999,0,0.00
2013-5-15,81,71,62,-100,-100,-100,0,0,100,0.00,40.00,0,-999,0,0.00
2013-5-16,71,66,64,-100,-100,-100,0,0,100,0.00,40.00,0,-999,0,0.00
2013-5-17,76,67,62,-100,-100,-100,0,0,100,0.00,40.00,0,-999,0,0.00
2013-5-18,83,73,62,-100,-100,-100,0,0,100,0.00,40.00,0,-999,0,0.00
2013-5-19,84,77,70,-100,-100,-100,0,0,100,0.00,40.00,0,-999,0,0.00
2013-5-20,83,74,69,-100,-100,-100,0,0,100,0.00,40.00,0,-999,0,0.00
2013-5-21,74,64,61,-100,-100,-100,0,0,100,0.00,40.00,0,-999,0,0.00
2013-5-22,78,68,60,-100,-100,-100,0,0,100,0.00,40.00,0,-999,0,0.00
2013-5-23,77,67,58,-100,-100,-100,0,0,100,0.00,40.00,0,-999,0,0.00
2013-5-24,69,59,53,-100,-100,-100,0,0,100,0.00,40.00,0,-999,0,0.00
2013-5-25,76,64,51,-100,-100,-100,0,0,100,0.00,40.00,0,-999,0,0.00
2013-5-26,86,74,58,-100,-100,-100,0,0,100,0.00,40.00,0,-999,0,0.00
2013-5-27,85,75,63,-100,-100,-100,0,0,100,0.00,40.00,0,-999,0,0.00
2013-5-28,85,76,68,-100,-100,-100,0,0,100,0.00,40.00,0,-999,0,0.00
2013-5-29,85,75,67,-100,-100,-100,0,0,100,0.00,40.00,0,-999,0,0.00
2013-5-30,83,74,67,-100,-100,-100,0,0,100,0.00,40.00,0,-999,0,0.00
2013-5-31,82,72,64,-100,-100,-100,0,0,100,0.00,40.00,0,-999,0,0.00
2013-6-1,75,69,62,-100,-100,-100,0,0,100,0.00,40.00,0,-999,0,0.00
2013-6-2,72,66,62,-100,-100,-100,0,0,100,0.00,40.00,0,-999,0,0.00
2013-6-3,73,64,58,-100,-100,-100,0,0,100,0.00,40.00,0,-999,0,0.00
2013-6-4,79,67,58,-100,-100,-100,0,0,100,0.00,40.00,0,-999,0,0.00
2013-6-5,83,71,64,-100,-100,-100,0,0,100,0.00,40.00,0,-999,0,0.00
2013-6-6,79,69,64,-100,-100,-100,0,0,100,0.00,40.00,0,-999,0,0.00
2013-6-7,78,67,62,-100,-100,-100,0,0,100,0.00,40.00,0,-999,0,0.00
2013-6-8,81,70,58,-100,-100,-100,0,0,100,0.00,40.00,0,-999,0,0.00
2013-6-9,82,69,62,-100,-100,-100,0,0,100,0.00,40.00,0,-999,0,0.00
2013-6-10,90,72,62,-100,-100,-100,0,0,100,0.00,40.00,0,-999,0,0.00
2013-6-11,95,79,68,-100,-100,-100,0,0,100,0.00,40.00,0,-999,0,0.00
2013-6-12,93,79,73,-100,-100,-100,0,0,100,0.00,40.00,0,-999,0,0.00
2013-6-13,86,79,75,-100,-100,-100,0,0,100,0.00,40.00,0,-999,0,0.00
2013-6-14,83,73,65,-100,-100,-100,0,0,100,0.00,40.00,0,-999,0,0.00
2013-6-15,90,76,64,-100,-100,-100,0,0,100,0.00,40.00,0,-999,0,0.00
2013-6-16,92,79,72,-100,-100,-100,0,0,100,0.00,40.00,0,-999,0,0.00
2013-6-17,85,76,69,-100,-100,-100,0,0,100,0.00,40.00,0,-999,0,0.00
2013-6-18,83,73,64,-100,-100,-100,0,0,100,0.00,40.00,0,-999,0,0.00
2013-6-19,89,76,66,-100,-100,-100,0,0,100,0.00,40.00,0,-999,0,0.00
2013-6-20,91,78,69,-100,-100,-100,0,0,100,0.00,40.00,0,-999,0,0.00
2013-6-22,91,88,80,-100,-100,-100,0,0,100,0.00,40.00,0,-999,0,0.00
2013-6-23,90,78,69,-100,-100,-100,0,0,100,0.00,40.00,0,-999,0,0.00
2013-6-24,94,80,71,-100,-100,-100,0,0,100,0.00,40.00,0,-999,0,0.00
2013-6-25,91,83,75,-100,-100,-100,0,0,100,0.00,40.00,0,-999,0,0.00
2013-6-26,91,81,74,-100,-100,-100,0,0,100,0.00,40.00,0,-999,0,0.00
2013-6-27,99,82,73,-100,-100,-100,0,0,100,0.00,40.00,0,-999,0,0.00
2013-6-28,91,80,70,-100,-100,-100,0,0,100,0.00,40.00,0,-999,0,0.00
2013-6-29,87,76,67,-100,-100,-100,0,0,100,0.00,40.00,0,-999,0,0.00
2013-6-30,78,69,63,-100,-100,-100,0,0,100,0.00,40.00,0,-999,0,0.00
2013-7-1,79,70,63,-100,-100,-100,0,0,100,0.00,40.00,0,-999,0,0.00
2013-7-2,77,68,60,-100,-100,-100,0,0,100,0.00,40.00,0,-999,0,0.00
2013-7-3,80,68,58,-100,-100,-100,0,0,100,0.00,40.00,0,-999,0,0.00
2013-7-4,83,71,60,-100,-100,-100,0,0,100,0.00,40.00,0,-999,0,0.00
2013-7-5,87,76,66,-100,-100,-100,0,0,100,0.00,40.00,0,-999,0,0.00
2013-7-6,91,72,66,-100,-100,-100,0,0,100,0.00,40.00,0,-999,0,0.00
2013-7-7,92,81,69,-100,-100,-100,0,0,100,0.00,40.00,0,-999,0,0.00
2013-7-8,94,80,72,-100,-100,-100,0,0,100,0.00,40.00,0,-999,0,0.00
2013-7-9,96,84,74,-100,-100,-100,0,0,100,0.00,40.00,0,-999,0,0.00
2013-7-10,99,83,75,-100,-100,-100,0,0,100,0.00,40.00,0,-999,0,0.00
2013-7-11,87,76,73,-100,-100,-100,0,0,100,0.00,40.00,0,-999,0,0.00
2013-7-12,82,72,63,-100,-100,-100,0,0,100,0.00,40.00,0,-999,0,0.00
2013-7-13,80,72,63,-100,-100,-100,0,0,100,0.00,40.00,0,-999,0,0.00
2013-7-14,87,73,64,-100,-100,-100,0,0,100,0.00,40.00,0,-999,0,0.00
2013-7-15,83,74,69,-100,-100,-100,0,0,100,0.00,40.00,0,-999,0,0.00
2013-7-16,89,80,71,-100,-100,-100,0,0,100,0.00,40.00,0,-999,0,0.00
2013-7-17,92,81,72,-100,-100,-100,0,0,100,0.00,40.00,0,-999,0,0.00
2013-7-18,89,79,72,-100,-100,-100,0,0,100,0.00,40.00,0,-999,0,0.00
2013-7-19,88,78,69,-100,-100,-100,0,0,100,0.00,40.00,0,-999,0,0.00
2013-7-20,94,79,71,-100,-100,-100,0,0,100,0.00,40.00,0,-999,0,0.00
2013-7-21,90,74,69,-100,-100,-100,0,0,100,0.00,40.00,0,-999,0,0.00
2013-7-22,87,78,71,-100,-100,-100,0,0,100,0.00,40.00,0,-999,0,0.00
2013-7-23,88,74,65,-100,-100,-100,0,0,100,0.00,40.00,0,-999,0,0.00
2013-7-24,79,72,68,-100,-100,-100,0,0,100,0.00,40.00,0,-999,0,0.00
2013-7-25,77,69,62,-100,-100,-100,0,0,100,0.00,40.00,0,-999,0,0.00
2013-7-26,80,69,62,-100,-100,-100,0,0,100,0.00,40.00,0,-999,0,0.00
2013-7-27,84,75,67,-100,-100,-100,0,0,100,0.00,40.00,0,-999,0,0.00
2013-7-28,76,69,62,-100,-100,-100,0,0,100,0.00,40.00,0,-999,0,0.00
2013-7-29,83,72,65,-100,-100,-100,0,0,100,0.00,40.00,0,-999,0,0.00
2013-7-30,78,72,69,-100,-100,-100,0,0,100,0.00,40.00,0,-999,0,0.00
2013-7-31,87,77,73,-100,-100,-100,0,0,100,0.00,40.00,0,-999,0,0.00
2013-8-1,80,74,69,-100,-100,-100,0,0,100,0.00,40.00,0,-999,0,0.00
2013-8-2,86,76,67,-100,-100,-100,0,0,100,0.00,40.00,0,-999,0,0.00
2013-8-3,81,74,69,-100,-100,-100,0,0,100,0.00,40.00,0,-999,0,0.00
2013-8-4,80,73,69,-100,-100,-100,0,0,100,0.00,40.00,0,-999,0,0.00
2013-8-5,79,71,67,-100,-100,-100,0,0,100,0.00,40.00,0,-999,0,0.00
2013-8-6,83,75,69,-100,-100,-100,0,0,100,0.00,40.00,0,-999,0,0.00
2013-8-7,86,77,70,-100,-100,-100,0,0,100,0.00,40.00,0,-999,0,0.00
2013-8-8,88,76,72,-100,-100,-100,0,0,100,0.00,40.00,0,-999,0,0.00
2013-8-9,82,74,69,-100,-100,-100,0,0,100,0.00,40.00,0,-999,0,0.00
2013-8-10,76,72,68,-100,-100,-100,0,0,100,0.00,40.00,0,-999,0,0.00
2013-8-11,83,75,70,-100,-100,-100,0,0,100,0.00,40.00,0,-999,0,0.00
2013-8-12,86,76,69,-100,-100,-100,0,0,100,0.00,40.00,0,-999,0,0.00
2013-8-13,79,72,69,-100,-100,-100,0,0,100,0.00,40.00,0,-999,0,0.00
2013-8-14,71,66,59,-100,-100,-100,0,0,100,0.00,40.00,0,-999,0,0.00
2013-8-15,72,62,54,-100,-100,-100,0,0,100,0.00,40.00,0,-999,0,0.00
2013-8-16,74,66,56,-100,-100,-100,0,0,100,0.00,40.00,0,-999,0,0.00
2013-8-17,76,68,62,-100,-100,-100,0,0,100,0.00,40.00,0,-999,0,0.00
2013-8-18,79,69,63,-100,-100,-100,0,0,100,0.00,40.00,0,-999,0,0.00
2013-8-19,81,71,62,-100,-100,-100,0,0,100,0.00,40.00,0,-999,0,0.00
2013-8-20,88,74,63,-100,-100,-100,0,0,100,0.00,40.00,0,-999,0,0.00
2013-8-21,91,78,65,-100,-100,-100,0,0,100,0.00,40.00,0,-999,0,0.00
2013-8-22,91,79,69,-100,-100,-100,0,0,100,0.00,40.00,0,-999,0,0.00
2013-8-23,87,77,69,-100,-100,-100,0,0,100,0.00,40.00,0,-999,0,0.00
2013-8-24,85,74,69,-100,-100,-100,0,0,100,0.00,40.00,0,-999,0,0.00
2013-8-25,91,78,69,-100,-100,-100,0,0,100,0.00,40.00,0,-999,0,0.00
2013-8-26,91,80,70,-100,-100,-100,0,0,100,0.00,40.00,0,-999,0,0.00
2013-8-27,89,75,69,-100,-100,-100,0,0,100,0.00,40.00,0,-999,0,0.00
2013-8-28,92,84,76,-100,-100,-100,0,0,100,0.00,40.00,0,-999,0,0.00
2013-8-29,94,80,70,-100,-100,-100,0,0,100,0.00,40.00,0,-999,0,0.00
2013-8-30,95,81,71,-100,-100,-100,0,0,100,0.00,40.00,0,-999,0,0.00
2013-8-31,98,84,72,-100,-100,-100,0,0,100,0.00,40.00,0,-999,0,0.00
2013-9-1,85,79,73,-100,-100,-100,0,0,100,0.00,40.00,0,-999,0,0.00
2013-9-2,87,78,70,-100,-100,-100,0,0,100,0.00,40.00,0,-999,0,0.00
2013-9-3,83,72,65,-100,-100,-100,0,0,100,0.00,40.00,0,-999,0,0.00
2013-9-4,81,70,58,-100,-100,-100,0,0,100,0.00,40.00,0,-999,0,0.00
2013-9-5,80,68,60,-100,-100,-100,0,0,100,0.00,40.00,0,-999,0,0.00
2013-9-6,87,72,62,-100,-100,-100,0,0,100,0.00,40.00,0,-999,0,0.00
2013-9-7,93,76,65,-100,-100,-100,0,0,100,0.00,40.00,0,-999,0,0.00
2013-9-8,94,79,66,-100,-100,-100,0,0,100,0.00,40.00,0,-999,0,0.00
2013-9-9,98,82,71,-100,-100,-100,0,0,100,0.00,40.00,0,-999,0,0.00
2013-9-10,95,81,69,-100,-100,-100,0,0,100,0.00,40.00,0,-999,0,0.00
2013-9-11,92,78,69,-100,-100,-100,0,0,100,0.00,40.00,0,-999,0,0.00
2013-9-12,89,78,69,-100,-100,-100,0,0,100,0.00,40.00,0,-999,0,0.00
2013-9-13,76,68,59,-100,-100,-100,0,0,100,0.00,40.00,0,-999,0,0.00
2013-9-14,72,61,51,-100,-100,-100,0,0,100,0.00,40.00,0,-999,0,0.00
2013-9-15,83,61,50,-100,-100,-100,0,0,100,0.00,40.00,0,-999,0,0.00
2013-9-16,76,67,60,-100,-100,-100,0,0,100,0.00,40.00,0,-999,0,0.00
2013-9-17,85,71,62,-100,-100,-100,0,0,100,0.00,40.00,0,-999,0,0.00
2013-9-18,69,67,66,-100,-100,-100,0,0,100,0.00,40.00,0,-999,0,0.00
2013-9-19,90,76,68,-100,-100,-100,0,0,100,0.00,40.00,0,-999,0,0.00
2013-9-20,74,70,65,-100,-100,-100,0,0,100,0.00,40.00,0,-999,0,0.00
2013-9-21,74,64,54,-100,-100,-100,0,0,100,0.00,40.00,0,-999,0,0.00
2013-9-22,73,62,51,-100,-100,-100,0,0,100,0.00,40.00,0,-999,0,0.00
2013-9-23,75,60,51,-100,-100,-100,0,0,100,0.00,40.00,0,-999,0,0.00
2013-9-24,83,68,58,-100,-100,-100,0,0,100,0.00,40.00,0,-999,0,0.00
2013-9-25,78,68,58,-100,-100,-100,0,0,100,0.00,40.00,0,-999,0,0.00
2013-9-26,85,69,62,-100,-100,-100,0,0,100,0.00,40.00,0,-999,0,0.00
2013-9-27,83,71,61,-100,-100,-100,0,0,100,0.00,40.00,0,-999,0,0.00
2013-9-28,82,68,62,-100,-100,-100,0,0,100,0.00,40.00,0,-999,0,0.00
2013-9-29,71,66,63,-100,-100,-100,0,0,100,0.00,40.00,0,-999,0,0.00
2013-9-30,76,68,63,-100,-100,-100,0,0,100,0.00,40.00,0,-999,0,0.00
2013-10-1,76,72,69,-100,-100,-100,0,0,100,0.00,40.00,0,-999,0,0.00
2013-10-2,77,70,66,-100,-100,-100,0,0,100,0.00,40.00,0,-999,0,0.00
2013-10-3,80,72,64,-100,-100,-100,0,0,100,0.00,40.00,0,-999,0,0.00
2013-10-4,80,73,69,-100,-100,-100,0,0,100,0.00,40.00,0,-999,0,0.00
2013-10-5,80,70,55,-100,-100,-100,0,0,100,0.00,40.00,0,-999,0,0.00
2013-10-6,67,56,50,-100,-100,-100,0,0,100,0.00,40.00,0,-999,0,0.00
2013-10-7,65,55,48,-100,-100,-100,0,0,100,0.00,40.00,0,-999,0,0.00
2013-10-8,69,54,44,-100,-100,-100,0,0,100,0.00,40.00,0,-999,0,0.00
2013-10-9,75,58,46,-100,-100,-100,0,0,100,0.00,40.00,0,-999,0,0.00
2013-10-10,70,62,56,-100,-100,-100,0,0,100,0.00,40.00,0,-999,0,0.00
2013-10-11,77,60,50,-100,-100,-100,0,0,100,0.00,40.00,0,-999,0,0.00
2013-10-12,76,63,58,-100,-100,-100,0,0,100,0.00,40.00,0,-999,0,0.00
2013-10-13,69,61,54,-100,-100,-100,0,0,100,0.00,40.00,0,-999,0,0.00
2013-10-14,74,60,48,-100,-100,-100,0,0,100,0.00,40.00,0,-999,0,0.00
2013-10-15,66,64,62,-100,-100,-100,0,0,100,0.00,40.00,0,-999,0,0.00
2013-10-16,62,55,51,-100,-100,-100,0,0,100,0.00,40.00,0,-999,0,0.00
2013-10-17,63,53,49,-100,-100,-100,0,0,100,0.00,40.00,0,-999,0,0.00
2013-10-18,67,52,43,-100,-100,-100,0,0,100,0.00,40.00,0,-999,0,0.00
2013-10-19,57,49,43,-100,-100,-100,0,0,100,0.00,40.00,0,-999,0,0.00
2013-10-20,64,49,39,-100,-100,-100,0,0,100,0.00,40.00,0,-999,0,0.00
2013-10-21,65,48,45,-100,-100,-100,0,0,100,0.00,40.00,0,-999,0,0.00
2013-10-22,64,50,40,-100,-100,-100,0,0,100,0.00,40.00,0,-999,0,0.00
2013-10-23,58,46,39,-100,-100,-100,0,0,100,0.00,40.00,0,-999,0,0.00
2013-10-24,54,46,39,-100,-100,-100,0,0,100,0.00,40.00,0,-999,0,0.00
2013-10-25,51,40,31,-100,-100,-100,0,0,100,0.00,40.00,0,-999,0,0.00
2013-10-26,66,47,35,-100,-100,-100,0,0,100,0.00,40.00,0,-999,0,0.00
2013-10-27,56,50,46,-100,-100,-100,0,0,100,0.00,40.00,0,-999,0,0.00
2013-10-28,63,49,42,-100,-100,-100,0,0,100,0.00,40.00,0,-999,0,0.00
2013-10-29,69,58,50,-100,-100,-100,0,0,100,0.00,40.00,0,-999,0,0.00
2013-10-30,72,66,62,-100,-100,-100,0,0,100,0.00,40.00,0,-999,0,0.00
2013-10-31,69,64,57,-100,-100,-100,0,0,100,0.00,40.00,0,-999,0,0.00
2013-11-1,69,57,47,-100,-100,-100,0,0,100,0.00,40.00,0,-999,0,0.00
2013-11-2,55,48,41,-100,-100,-100,0,0,100,0.00,40.00,0,-999,0,0.00
2013-11-3,57,43,33,-100,-100,-100,0,0,100,0.00,40.00,0,-999,0,0.00
2013-11-4,56,49,42,-100,-100,-100,0,0,100,0.00,40.00,0,-999,0,0.00
2013-11-5,62,56,50,-100,-100,-100,0,0,100,0.00,40.00,0,-999,0,0.00
2013-11-6,62,53,42,-100,-100,-100,0,0,100,0.00,40.00,0,-999,0,0.00
2013-11-7,55,42,34,-100,-100,-100,0,0,100,0.00,40.00,0,-999,0,0.00
2013-11-8,58,44,32,-100,-100,-100,0,0,100,0.00,40.00,0,-999,0,0.00
2013-11-9,58,48,40,-100,-100,-100,0,0,100,0.00,40.00,0,-999,0,0.00
2013-11-10,58,49,41,-100,-100,-100,0,0,100,0.00,40.00,0,-999,0,0.00
2013-11-11,66,50,36,-100,-100,-100,0,0,100,0.00,40.00,0,-999,0,0.00
2013-11-12,56,38,26,-100,-100,-100,0,0,100,0.00,40.00,0,-999,0,0.00
2013-11-13,43,30,21,-100,-100,-100,0,0,100,0.00,40.00,0,-999,0,0.00
2013-11-14,51,38,24,-100,-100,-100,0,0,100,0.00,40.00,0,-999,0,0.00
2013-11-15,52,45,37,-100,-100,-100,0,0,100,0.00,40.00,0,-999,0,0.00
2013-11-16,65,54,47,-100,-100,-100,0,0,100,0.00,40.00,0,-999,0,0.00
2013-11-17,80,67,52,-100,-100,-100,0,0,100,0.00,40.00,0,-999,0,0.00
2013-11-18,62,49,40,-100,-100,-100,0,0,100,0.00,40.00,0,-999,0,0.00
2013-11-19,49,40,33,-100,-100,-100,0,0,100,0.00,40.00,0,-999,0,0.00
2013-11-20,54,40,30,-100,-100,-100,0,0,100,0.00,40.00,0,-999,0,0.00
2013-11-21,54,49,40,-100,-100,-100,0,0,100,0.00,40.00,0,-999,0,0.00
2013-11-22,53,45,36,-100,-100,-100,0,0,100,0.00,40.00,0,-999,0,0.00
2013-11-23,41,35,27,-100,-100,-100,0,0,100,0.00,40.00,0,-999,0,0.00
2013-11-24,27,23,18,-100,-100,-100,0,0,100,0.00,40.00,0,-999,0,0.00
2013-11-25,31,29,27,-100,-100,-100,0,0,100,0.00,40.00,0,-999,0,0.00
2013-11-26,42,34,29,-100,-100,-100,0,0,100,0.00,40.00,0,-999,0,0.00
2013-11-27,34,28,21,-100,-100,-100,0,0,100,0.00,40.00,0,-999,0,0.00
2013-11-28,43,31,23,-100,-100,-100,0,0,100,0.00,40.00,0,-999,0,0.00
2013-11-29,49,34,25,-100,-100,-100,0,0,100,0.00,40.00,0,-999,0,0.00
2013-11-30,51,38,26,-100,-100,-100,0,0,100,0.00,40.00,0,-999,0,0.00
2013-12-1,54,46,36,-100,-100,-100,0,0,100,0.00,40.00,0,-999,0,0.00
2013-12-2,59,48,40,-100,-100,-100,0,0,100,0.00,40.00,0,-999,0,0.00
2013-12-3,55,50,44,-100,-100,-100,0,0,100,0.00,40.00,0,-999,0,0.00
2013-12-4,68,59,54,-100,-100,-100,0,0,100,0.00,40.00,0,-999,0,0.00
2013-12-5,54,39,29,-100,-100,-100,0,0,100,0.00,40.00,0,-999,0,0.00
2013-12-6,28,22,18,-100,-100,-100,0,0,100,0.00,40.00,0,-999,0,0.00
2013-12-7,19,17,10,-100,-100,-100,0,0,100,0.00,40.00,0,-999,0,0.00
2013-12-8,27,24,18,-100,-100,-100,0,0,100,0.00,40.00,0,-999,0,0.00
2013-12-9,30,28,26,-100,-100,-100,0,0,100,0.00,40.00,0,-999,0,0.00
2013-12-10,33,27,20,-100,-100,-100,0,0,100,0.00,40.00,0,-999,0,0.00
2013-12-11,36,27,19,-100,-100,-100,0,0,100,0.00,40.00,0,-999,0,0.00
2013-12-12,33,24,17,-100,-100,-100,0,0,100,0.00,40.00,0,-999,0,0.00
2013-12-13,39,29,22,-100,-100,-100,0,0,100,0.00,40.00,0,-999,0,0.00
2013-12-14,37,33,30,-100,-100,-100,0,0,100,0.00,40.00,0,-999,0,0.00
2013-12-15,40,32,28,-100,-100,-100,0,0,100,0.00,40.00,0,-999,0,0.00
2013-12-16,56,39,31,-100,-100,-100,0,0,100,0.00,40.00,0,-999,0,0.00
2013-12-17,54,40,32,-100,-100,-100,0,0,100,0.00,40.00,0,-999,0,0.00
2013-12-18,52,40,29,-100,-100,-100,0,0,100,0.00,40.00,0,-999,0,0.00
2013-12-19,55,48,40,-100,-100,-100,0,0,100,0.00,40.00,0,-999,0,0.00
2013-12-20,64,59,55,-100,-100,-100,0,0,100,0.00,40.00,0,-999,0,0.00
2013-12-21,62,46,39,-100,-100,-100,0,0,100,0.00,40.00,0,-999,0,0.00
2013-12-22,45,39,32,-100,-100,-100,0,0,100,0.00,40.00,0,-999,0,0.00
2013-12-23,35,30,27,-100,-100,-100,0,0,100,0.00,40.00,0,-999,0,0.00
2013-12-24,27,22,18,-100,-100,-100,0,0,100,0.00,40.00,0,-999,0,0.00
2013-12-25,43,31,22,-100,-100,-100,0,0,100,0.00,40.00,0,-999,0,0.00
2013-12-26,43,33,27,-100,-100,-100,0,0,100,0.00,40.00,0,-999,0,0.00
2013-12-27,51,37,27,-100,-100,-100,0,0,100,0.00,40.00,0,-999,0,0.00
2013-12-28,43,36,30,-100,-100,-100,0,0,100,0.00,40.00,0,-999,0,0.00
2013-12-29,47,36,25,-100,-100,-100,0,0,100,0.00,40.00,0,-999,0,0.00
2013-12-30,28,24,21,-100,-100,-100,0,0,100,0.00,40.00,0,-999,0,0.00
2013-12-31,40,28,21,-100,-100,-100,0,0,100,0.00,40.00,0,-999,0,0.00
2014-1-1,44,36,27,-100,-100,-100,0,0,100,0.00,40.00,0,-999,0,0.00
2014-1-2,42,29,20,-100,-100,-100,0,0,100,0.00,40.00,0,-999,0,0.00